Location: Vassar Physics Lab
(41.6843°N, 73.8954°W)
Time: 14:27:53
(UTC-04:00)

CZ-4B DEB - Visible Passes

Search period start: 27 June 2016 00:00
Search period end: 07 July 2016 00:00
Orbit: 842 x 862 km, 98.9° (Epoch: 26 June)

Date Brightness Start Highest point End Pass type
(mag) Time Alt. Az. Time Alt. Az. Time Alt. Az.
27 Jun 6.5 03:30:20 10° NE 03:34:12 19° E 03:38:03 10° SE visible
28 Jun 6.7 03:19:37 10° NE 03:22:41 15° E 03:25:45 10° SE visible
29 Jun 6.8 03:09:26 10° ENE 03:11:10 11° E 03:12:53 10° ESE visible
29 Jun 4.3 04:46:59 10° NNE 04:52:35 89° ESE 04:58:09 10° SSW visible
30 Jun 4.5 04:35:38 10° NNE 04:41:12 72° ESE 04:46:45 10° S visible
01 Jul 4.9 04:24:18 10° NNE 04:29:48 57° E 04:35:16 10° S visible
02 Jul 5.2 04:13:03 10° NNE 04:18:24 45° E 04:23:42 10° S visible
03 Jul 5.6 04:01:50 10° NNE 04:06:57 36° E 04:12:01 10° SSE visible
04 Jul 6.0 03:50:42 10° NE 03:55:30 29° E 04:00:15 10° SSE visible
05 Jul 6.3 03:39:40 10° NE 03:44:01 23° E 03:48:20 10° SE visible
06 Jul 6.5 03:28:46 10° NE 03:32:31 18° E 03:36:15 10° SE visible
